Overview Statistics Trail Chart Weather Telemetry Raw packets
 

This is the latest recevied weather packets stored in our database for station/object JH7UAX-10. If no packets are shown the sender has not sent any weather packets the latest 10 day(s).

<< 6 7 8 9 10 11 12 >>
Time Temp. Humidity Pressure Rain* Wind** Luminosity Snow
1788353071 23.33° C 96% 1023.8 hPa 5.08 mm - - -
1788352154 23.33° C 96% 1023.8 hPa 5.08 mm - - -
1788351254 23.33° C 96% 1024.1 hPa 2.54 mm - - -
1788350355 23.33° C 96% 1023.7 hPa 0 mm - - -
1788349455 23.33° C 96% 1023.6 hPa 0 mm - - -
1788348553 23.33° C 95% 1023.7 hPa 0 mm - - -
1788347654 23.33° C 95% 1024.1 hPa 0 mm - - -
1788346754 23.33° C 95% 1023.9 hPa 0 mm - - -
1788345854 23.33° C 95% 1024.1 hPa 0 mm - - -
1788344954 23.89° C 94% 1023.9 hPa 0 mm - - -
1788344054 23.89° C 94% 1023.7 hPa 0 mm - - -
1788343153 24.44° C 94% 1023.6 hPa 0 mm - - -
1788342254 24.44° C 94% 1023.6 hPa 0 mm - - -
1788341354 25° C 93% 1023.4 hPa 0 mm - - -
1788340454 25° C 93% 1023.3 hPa 0 mm - - -
1788339554 25° C 93% 1023.2 hPa 0 mm - - -
1788338655 25.56° C 93% 1023.2 hPa 0 mm - - -
1788337754 25.56° C 92% 1023.3 hPa 0 mm - - -
1788336855 25.56° C 92% 1023.4 hPa 0 mm - - -
1788335954 26.11° C 92% 1023.2 hPa 0 mm - - -
1788335054 25.56° C 92% 1023.4 hPa 0.76 mm - - -
1788334154 25° C 92% 1023.5 hPa 0.76 mm - - -
1788333254 25.56° C 90% 1023.4 hPa 0.76 mm - - -
1788332355 26.67° C 89% 1023.3 hPa 0.76 mm - - -
1788331454 27.22° C 89% 1023.2 hPa 0 mm - - -

* Rain latest hour (hover to see other rain measurements)
** Current wind speed in m/s (hover to see current wind gust speed)